• In Portugal
  • List of Countries
  • For 7 days
  • Water Temperature
  • Satellite Maps
  • Weather Map
  • Weather Widgets
  • user-avatar
    Login

    Hourly Weather Kapan

    Today, 26 September, Tuesday

    Time Temperature Precipitation Wind Pressure Humidity
    00:00 +19°C° 0 mm 1 mps 687 mmHg 82%
    01:00 +18°C° 0 mm 1 mps 687 mmHg 82%
    02:00 +18°C° 0 mm 1 mps 687 mmHg 83%
    03:00 +16°C° 0 mm 1 mps 687 mmHg 81%
    04:00 +16°C° 0 mm 1 mps 687 mmHg 81%
    05:00 +16°C° 0 mm 1 mps 687 mmHg 81%
    06:00 +16°C° 0 mm 1 mps 687 mmHg 80%
    07:00 +18°C° 0 mm 1 mps 687 mmHg 70%
    08:00 +20°C° 0 mm 1 mps 687 mmHg 60%
    09:00 +23°C° 0 mm 2 mps 688 mmHg 48%
    10:00 +24°C° 0 mm 2 mps 688 mmHg 45%
    11:00 +25°C° 0 mm 3 mps 687 mmHg 42%
    12:00 +26°C° 0 mm 3 mps 687 mmHg 39%
    13:00 +26°C° 0 mm 3 mps 687 mmHg 40%
    14:00 +26°C° 0 mm 3 mps 687 mmHg 42%
    15:00 +25°C° 0 mm 3 mps 686 mmHg 43%
    16:00 +24°C° 0 mm 3 mps 686 mmHg 52%
    17:00 +21°C° 0 mm 3 mps 686 mmHg 62%
    18:00 +20°C° 0 mm 3 mps 686 mmHg 71%
    19:00 +19°C° 0 mm 3 mps 686 mmHg 75%
    20:00 +18°C° 0 mm 2 mps 686 mmHg 78%
    21:00 +18°C° 0 mm 2 mps 686 mmHg 82%
    22:00 +18°C° 0.1 mm 2 mps 686 mmHg 83%
    23:00 +17°C° 0.1 mm 2 mps 686 mmHg 84%

    Tomorrow, 27 September, Wednesday

    Time Temperature Precipitation Wind Pressure Humidity
    00:00 +17°C° 0.1 mm 2 mps 686 mmHg 85%
    01:00 +17°C° 0.1 mm 2 mps 686 mmHg 85%
    02:00 +17°C° 0.1 mm 2 mps 685 mmHg 85%
    03:00 +16°C° 0.1 mm 1 mps 685 mmHg 86%
    04:00 +16°C° 0.1 mm 1 mps 685 mmHg 86%
    05:00 +16°C° 0.1 mm 1 mps 685 mmHg 86%
    06:00 +16°C° 0.1 mm 1 mps 685 mmHg 86%
    07:00 +17°C° 0 mm 2 mps 685 mmHg 78%
    08:00 +19°C° 0 mm 2 mps 686 mmHg 70%
    09:00 +20°C° 0 mm 2 mps 686 mmHg 62%
    10:00 +21°C° 0 mm 3 mps 686 mmHg 58%
    11:00 +22°C° 0 mm 3 mps 686 mmHg 54%
    12:00 +23°C° 0 mm 4 mps 686 mmHg 50%
    13:00 +23°C° 0 mm 4 mps 685 mmHg 51%
    14:00 +23°C° 0 mm 4 mps 685 mmHg 53%
    15:00 +22°C° 0 mm 4 mps 684 mmHg 55%
    16:00 +21°C° 0 mm 4 mps 684 mmHg 63%
    17:00 +19°C° 0 mm 3 mps 684 mmHg 71%
    18:00 +17°C° 0 mm 3 mps 684 mmHg 78%
    19:00 +17°C° 0 mm 3 mps 684 mmHg 80%
    20:00 +16°C° 0 mm 3 mps 684 mmHg 82%
    21:00 +16°C° 0 mm 3 mps 684 mmHg 84%
    22:00 +16°C° 0 mm 3 mps 684 mmHg 84%
    23:00 +14°C° 0 mm 3 mps 684 mmHg 85%

    Day after tomorrow, 28 September, Thursday

    Time Temperature Precipitation Wind Pressure Humidity
    00:00 +14°C° 0 mm 3 mps 684 mmHg 85%
    01:00 +14°C° 0 mm 3 mps 684 mmHg 86%
    02:00 +15°C° 0 mm 2 mps 684 mmHg 86%
    03:00 +14°C° 0 mm 2 mps 684 mmHg 87%
    04:00 +14°C° 0 mm 2 mps 685 mmHg 87%
    05:00 +14°C° 0 mm 2 mps 685 mmHg 87%
    06:00 +14°C° 0 mm 2 mps 685 mmHg 88%
    07:00 +15°C° 0 mm 2 mps 685 mmHg 83%
    08:00 +14°C° 0 mm 3 mps 686 mmHg 78%
    09:00 +16°C° 0 mm 3 mps 686 mmHg 73%
    10:00 +17°C° 0 mm 3 mps 686 mmHg 71%
    11:00 +17°C° 0 mm 3 mps 686 mmHg 68%
    12:00 +18°C° 0 mm 3 mps 686 mmHg 66%
    13:00 +18°C° 0 mm 3 mps 686 mmHg 67%
    14:00 +18°C° 0 mm 4 mps 685 mmHg 68%
    15:00 +17°C° 0 mm 4 mps 685 mmHg 69%
    16:00 +15°C° 0.1 mm 4 mps 685 mmHg 74%
    17:00 +14°C° 0.1 mm 4 mps 685 mmHg 79%
    18:00 +13°C° 0.1 mm 3 mps 685 mmHg 84%
    19:00 +13°C° 0 mm 3 mps 686 mmHg 85%
    20:00 +13°C° 0 mm 3 mps 686 mmHg 86%
    21:00 +12°C° 0 mm 3 mps 687 mmHg 87%
    22:00 +12°C° 0.1 mm 3 mps 687 mmHg 88%
    23:00 +12°C° 0.1 mm 3 mps 687 mmHg 88%

    29 September, Friday

    Time Temperature Precipitation Wind Pressure Humidity
    00:00 +12°C° 0.1 mm 3 mps 687 mmHg 89%
    01:00 +12°C° 0.1 mm 3 mps 687 mmHg 89%
    02:00 +12°C° 0.1 mm 3 mps 687 mmHg 89%
    03:00 +11°C° 0.1 mm 3 mps 687 mmHg 89%
    04:00 +11°C° 0.1 mm 3 mps 687 mmHg 90%
    05:00 +11°C° 0.1 mm 3 mps 687 mmHg 90%
    06:00 +12°C° 0.1 mm 2 mps 688 mmHg 90%
    07:00 +12°C° 0.1 mm 3 mps 688 mmHg 86%
    08:00 +12°C° 0.1 mm 3 mps 688 mmHg 82%
    09:00 +13°C° 0.1 mm 3 mps 688 mmHg 78%
    10:00 +14°C° 0 mm 3 mps 688 mmHg 73%
    11:00 +16°C° 0 mm 3 mps 688 mmHg 69%
    12:00 +17°C° 0 mm 3 mps 688 mmHg 64%
    13:00 +17°C° 0 mm 3 mps 688 mmHg 64%
    14:00 +17°C° 0 mm 3 mps 687 mmHg 64%
    15:00 +17°C° 0 mm 3 mps 687 mmHg 64%
    16:00 +16°C° 0 mm 3 mps 687 mmHg 69%
    17:00 +14°C° 0 mm 3 mps 687 mmHg 74%
    18:00 +13°C° 0 mm 3 mps 687 mmHg 78%
    19:00 +13°C° 0 mm 3 mps 687 mmHg 80%
    20:00 +12°C° 0 mm 3 mps 687 mmHg 82%
    21:00 +13°C° 0 mm 2 mps 687 mmHg 83%
    22:00 +13°C° 0 mm 2 mps 687 mmHg 84%
    23:00 +12°C° 0 mm 2 mps 686 mmHg 85%

    30 September, Saturday

    Time Temperature Precipitation Wind Pressure Humidity
    00:00 +12°C° 0 mm 2 mps 686 mmHg 85%
    01:00 +12°C° 0 mm 2 mps 686 mmHg 85%
    02:00 +12°C° 0 mm 1 mps 686 mmHg 85%
    03:00 +12°C° 0 mm 1 mps 686 mmHg 85%
    04:00 +12°C° 0 mm 1 mps 686 mmHg 85%
    05:00 +12°C° 0 mm 1 mps 686 mmHg 85%
    06:00 +12°C° 0 mm 1 mps 686 mmHg 84%
    07:00 +14°C° 0 mm 1 mps 686 mmHg 74%
    08:00 +16°C° 0 mm 2 mps 686 mmHg 65%
    09:00 +18°C° 0 mm 2 mps 686 mmHg 55%
    10:00 +19°C° 0 mm 2 mps 686 mmHg 51%
    11:00 +21°C° 0 mm 3 mps 686 mmHg 46%
    12:00 +22°C° 0 mm 3 mps 686 mmHg 42%
    13:00 +22°C° 0.1 mm 3 mps 685 mmHg 43%
    14:00 +22°C° 0.1 mm 3 mps 685 mmHg 44%
    15:00 +22°C° 0.1 mm 3 mps 684 mmHg 46%
    16:00 +20°C° 0.3 mm 3 mps 684 mmHg 54%
    17:00 +19°C° 0.3 mm 2 mps 683 mmHg 62%
    18:00 +17°C° 0.3 mm 2 mps 683 mmHg 70%
    19:00 +16°C° 0.2 mm 2 mps 683 mmHg 73%
    20:00 +16°C° 0.2 mm 2 mps 683 mmHg 75%
    21:00 +15°C° 0.2 mm 2 mps 683 mmHg 78%
    22:00 +15°C° 0 mm 1 mps 683 mmHg 79%
    23:00 +15°C° 0 mm 1 mps 683 mmHg 79%

    1 October, Sunday

    Time Temperature Precipitation Wind Pressure Humidity
    00:00 +15°C° 0 mm 1 mps 683 mmHg 80%
    01:00 +14°C° 0 mm 1 mps 683 mmHg 80%
    02:00 +14°C° 0 mm 1 mps 683 mmHg 79%
    03:00 +14°C° 0 mm 1 mps 683 mmHg 79%
    04:00 +14°C° 0 mm 1 mps 683 mmHg 79%
    05:00 +14°C° 0 mm 1 mps 683 mmHg 79%
    06:00 +14°C° 0 mm 1 mps 684 mmHg 79%
    07:00 +16°C° 0 mm 1 mps 684 mmHg 69%
    08:00 +18°C° 0 mm 2 mps 685 mmHg 60%
    09:00 +20°C° 0 mm 2 mps 686 mmHg 50%
    10:00 +23°C° 0 mm 2 mps 686 mmHg 46%
    11:00 +24°C° 0 mm 3 mps 686 mmHg 42%
    12:00 +25°C° 0 mm 3 mps 686 mmHg 37%
    13:00 +25°C° 0 mm 3 mps 685 mmHg 37%
    14:00 +25°C° 0 mm 3 mps 685 mmHg 38%
    15:00 +25°C° 0 mm 3 mps 685 mmHg 38%
    16:00 +22°C° 0 mm 3 mps 684 mmHg 46%
    17:00 +20°C° 0 mm 2 mps 684 mmHg 54%
    18:00 +19°C° 0 mm 2 mps 684 mmHg 62%
    19:00 +18°C° 0 mm 2 mps 684 mmHg 67%
    20:00 +17°C° 0 mm 2 mps 684 mmHg 73%
    21:00 +16°C° 0 mm 2 mps 685 mmHg 78%
    22:00 +16°C° 0 mm 2 mps 685 mmHg 79%
    23:00 +16°C° 0 mm 2 mps 685 mmHg 80%
    Show more